�������l�o���
Date,Time,MP-1(��Sv/h),MP-2(��Sv/h),MP-3(��Sv/h),MP-4(��Sv/h),MP-5(��Sv/h),MP-6(��Sv/h),MP-7(��Sv/h),MP-8(��Sv/h),����,����(m/s),���J
2020/11/09,00:00,0.673,0.969,0.614,1.201,0.862,0.389,0.678,0.638,�k,8.1,��
2020/11/09,00:10,0.673,0.969,0.612,1.203,0.864,0.386,0.679,0.639,�k,9.7,��
2020/11/09,00:20,0.670,0.969,0.614,1.202,0.861,0.387,0.678,0.637,�k,9.3,��
2020/11/09,00:30,0.672,0.968,0.614,1.201,0.861,0.387,0.678,0.637,�k,9.2,��
2020/11/09,00:40,0.673,0.968,0.614,1.200,0.861,0.388,0.676,0.638,�k�k��,10.0,��
2020/11/09,00:50,0.672,0.971,0.614,1.200,0.861,0.388,0.676,0.638,�k�k��,9.0,��
2020/11/09,01:00,0.671,0.970,0.614,1.200,0.863,0.389,0.676,0.639,�k�k��,8.8,��
2020/11/09,01:10,0.671,0.969,0.613,1.201,0.863,0.387,0.676,0.638,�k,7.8,��
2020/11/09,01:20,0.671,0.971,0.612,1.200,0.863,0.387,0.676,0.638,�k,7.0,��
2020/11/09,01:30,0.671,0.969,0.613,1.200,0.862,0.387,0.676,0.638,�k,7.6,��
2020/11/09,01:40,0.671,0.970,0.613,1.202,0.859,0.386,0.678,0.637,�k,6.6,��
2020/11/09,01:50,0.672,0.970,0.613,1.201,0.861,0.388,0.676,0.638,�k,7.4,��
2020/11/09,02:00,0.670,0.971,0.613,1.200,0.861,0.387,0.678,0.638,�k,7.4,��
2020/11/09,02:10,0.671,0.969,0.613,1.200,0.862,0.387,0.678,0.638,�k�k��,7.3,��
2020/11/09,02:20,0.670,0.970,0.613,1.202,0.860,0.388,0.678,0.638,�k�k��,3.9,��
2020/11/09,02:30,0.670,0.970,0.614,1.200,0.861,0.388,0.679,0.637,�k�k��,3.6,��
2020/11/09,02:40,0.672,0.969,0.613,1.202,0.860,0.387,0.679,0.640,�k�k��,4.8,��
2020/11/09,02:50,0.671,0.971,0.613,1.202,0.862,0.388,0.679,0.639,�k��,5.7,��
2020/11/09,03:00,0.670,0.969,0.616,1.200,0.862,0.386,0.678,0.637,�k��,8.2,��
2020/11/09,03:10,0.669,0.969,0.614,1.203,0.861,0.388,0.678,0.638,�k��,7.9,��
2020/11/09,03:20,0.671,0.970,0.612,1.201,0.861,0.386,0.678,0.638,�k�k��,7.9,��
2020/11/09,03:30,0.672,0.971,0.613,1.202,0.861,0.385,0.676,0.637,�k�k��,8.0,��
2020/11/09,03:40,0.671,0.968,0.613,1.200,0.861,0.387,0.676,0.639,�k��,8.4,��
2020/11/09,03:50,0.671,0.968,0.612,1.201,0.861,0.388,0.677,0.638,�k��,7.3,��
2020/11/09,04:00,0.670,0.970,0.615,1.199,0.861,0.387,0.677,0.638,�k��,8.1,��
2020/11/09,04:10,0.669,0.969,0.614,1.203,0.858,0.385,0.677,0.638,�k�k��,6.2,��
2020/11/09,04:20,0.670,0.971,0.614,1.202,0.862,0.386,0.676,0.640,�k,3.6,��
2020/11/09,04:30,0.671,0.968,0.612,1.200,0.860,0.387,0.676,0.639,�k,3.3,��
2020/11/09,04:40,0.670,0.971,0.614,1.202,0.861,0.387,0.677,0.638,�k�k��,2.9,��
2020/11/09,04:50,0.671,0.968,0.614,1.203,0.860,0.388,0.678,0.637,�k,4.1,��
2020/11/09,05:00,0.669,0.971,0.612,1.202,0.861,0.386,0.678,0.637,�k,4.7,��
2020/11/09,05:10,0.669,0.969,0.614,1.202,0.861,0.387,0.679,0.638,�k,3.1,��
2020/11/09,05:20,0.670,0.968,0.612,1.200,0.862,0.386,0.676,0.638,�k�k��,2.0,��
2020/11/09,05:30,0.670,0.967,0.613,1.203,0.861,0.387,0.678,0.638,�k��,3.6,��
2020/11/09,05:40,0.670,0.971,0.615,1.202,0.860,0.386,0.677,0.638,���k��,5.2,��
2020/11/09,05:50,0.671,0.968,0.614,1.200,0.860,0.386,0.676,0.638,�k��,3.1,��
2020/11/09,06:00,0.671,0.972,0.613,1.199,0.860,0.387,0.677,0.637,�k��,2.2,��
2020/11/09,06:10,0.669,0.966,0.614,1.201,0.861,0.388,0.678,0.638,���k��,5.0,��
2020/11/09,06:20,0.670,0.968,0.614,1.200,0.859,0.385,0.677,0.638,�k��,2.9,��
2020/11/09,06:30,0.671,0.967,0.614,1.199,0.862,0.386,0.678,0.638,�k,1.7,��
2020/11/09,06:40,0.670,0.967,0.614,1.201,0.859,0.386,0.678,0.637,�k�k��,2.2,��
2020/11/09,06:50,0.669,0.970,0.613,1.202,0.860,0.387,0.677,0.637,�k�k��,1.4,��
2020/11/09,07:00,0.671,0.969,0.612,1.200,0.860,0.387,0.678,0.638,��,0.8,��
2020/11/09,07:10,0.668,0.968,0.612,1.200,0.860,0.386,0.677,0.636,��,0.6,��
2020/11/09,07:20,0.670,0.969,0.612,1.201,0.861,0.386,0.678,0.636,���k��,1.5,��
2020/11/09,07:30,0.669,0.969,0.614,1.203,0.859,0.386,0.677,0.638,��,1.2,��
2020/11/09,07:40,0.668,0.968,0.614,1.200,0.860,0.386,0.678,0.637,���k��,1.2,��
2020/11/09,07:50,0.671,0.967,0.613,1.198,0.858,0.387,0.679,0.636,�k��,2.3,��
2020/11/09,08:00,0.671,0.970,0.611,1.201,0.860,0.386,0.679,0.638,���k��,3.5,��
2020/11/09,08:10,0.669,0.968,0.613,1.202,0.860,0.388,0.679,0.638,���k��,2.3,��
2020/11/09,08:20,0.671,0.967,0.612,1.201,0.860,0.385,0.679,0.637,�k,3.1,��
2020/11/09,08:30,0.671,0.969,0.612,1.200,0.859,0.388,0.678,0.637,�k��,4.7,��
2020/11/09,08:40,0.670,0.966,0.614,1.202,0.860,0.386,0.678,0.639,�k��,3.4,��
2020/11/09,08:50,0.670,0.967,0.612,1.200,0.860,0.386,0.679,0.638,�k��,3.4,��
2020/11/09,09:00,0.671,0.963,0.613,1.201,0.860,0.386,0.677,0.636,�k��,3.1,��
2020/11/09,09:10,0.670,0.966,0.614,1.200,0.861,0.387,0.678,0.637,���k��,3.5,��
2020/11/09,09:20,0.671,0.963,0.614,1.201,0.861,0.384,0.674,0.638,���k��,4.1,��
2020/11/09,09:30,0.671,0.963,0.613,1.200,0.862,0.387,0.675,0.637,���k��,3.8,��
2020/11/09,09:40,0.674,0.964,0.615,1.202,0.862,0.388,0.674,0.638,�k�k��,3.9,��
2020/11/09,09:50,0.674,0.966,0.613,1.203,0.861,0.387,0.676,0.637,�k�k��,2.8,��
2020/11/09,10:00,0.672,0.963,0.614,1.199,0.860,0.387,0.675,0.638,�k��,2.5,��
2020/11/09,10:10,0.673,0.964,0.614,1.201,0.863,0.387,0.675,0.638,���k��,3.0,��
2020/11/09,10:20,0.674,0.965,0.613,1.203,0.864,0.388,0.677,0.638,���k��,2.3,��
2020/11/09,10:30,0.674,0.966,0.613,1.201,0.863,0.386,0.677,0.637,���k��,2.6,��
2020/11/09,10:40,0.670,0.966,0.614,1.200,0.864,0.386,0.675,0.637,���k��,2.3,��
2020/11/09,10:50,0.672,0.964,0.615,1.202,0.863,0.388,0.676,0.640,���쓌,2.9,��
2020/11/09,11:00,0.673,0.966,0.614,1.201,0.863,0.388,0.676,0.638,��,2.6,��
2020/11/09,11:10,0.671,0.965,0.614,1.202,0.861,0.386,0.676,0.638,���쓌,3.3,��
2020/11/09,11:20,0.673,0.967,0.616,1.202,0.859,0.387,0.675,0.639,��,2.8,��
2020/11/09,11:30,0.673,0.968,0.614,1.202,0.861,0.387,0.678,0.639,���쓌,2.6,��
2020/11/09,11:40,0.674,0.969,0.615,1.201,0.862,0.388,0.675,0.637,�쓌,2.9,��
2020/11/09,11:50,0.672,0.971,0.612,1.205,0.862,0.388,0.677,0.637,�쓌,3.4,��
2020/11/09,12:00,0.671,0.970,0.615,1.202,0.861,0.386,0.674,0.638,���쓌,3.9,��
2020/11/09,12:10,0.672,0.972,0.615,1.205,0.862,0.388,0.675,0.639,��,4.1,��
2020/11/09,12:20,0.673,0.969,0.613,1.204,0.860,0.389,0.678,0.637,��,5.3,��
2020/11/09,12:30,0.672,0.966,0.613,1.202,0.860,0.388,0.676,0.639,���k��,4.9,�L
2020/11/09,12:40,0.671,0.968,0.613,1.202,0.861,0.388,0.675,0.637,���k��,5.4,�L
2020/11/09,12:50,0.672,0.967,0.614,1.202,0.860,0.388,0.678,0.639,�k��,4.2,�L
2020/11/09,13:00,0.672,0.968,0.614,1.204,0.860,0.386,0.677,0.638,�k�k��,1.9,�L
2020/11/09,13:10,0.671,0.967,0.615,1.201,0.860,0.388,0.675,0.637,�k��,1.4,�L
2020/11/09,13:20,0.673,0.966,0.616,1.202,0.862,0.389,0.676,0.638,�k,0.9,�L
2020/11/09,13:30,0.675,0.968,0.617,1.204,0.861,0.386,0.677,0.637,�k��,1.5,��
2020/11/09,13:40,0.674,0.973,0.616,1.205,0.860,0.389,0.676,0.638,�k�k��,3.2,��
2020/11/09,13:50,0.671,0.969,0.614,1.204,0.863,0.386,0.677,0.638,�k��,7.1,�L
2020/11/09,14:00,0.673,0.969,0.613,1.203,0.862,0.387,0.678,0.638,�k��,7.0,�L
2020/11/09,14:10,0.672,0.968,0.613,1.205,0.860,0.388,0.677,0.637,�k��,6.9,�L
2020/11/09,14:20,0.674,0.965,0.616,1.201,0.860,0.387,0.677,0.636,�k��,9.0,�L
2020/11/09,14:30,0.671,0.968,0.616,1.205,0.861,0.388,0.677,0.635,�k��,7.6,�L
2020/11/09,14:40,0.674,0.970,0.616,1.202,0.862,0.387,0.677,0.636,�k��,7.0,��
2020/11/09,14:50,0.672,0.968,0.615,1.203,0.863,0.388,0.675,0.636,�k��,6.3,��
2020/11/09,15:00,0.673,0.971,0.615,1.202,0.863,0.387,0.676,0.638,�k��,7.8,��
2020/11/09,15:10,0.672,0.968,0.614,1.203,0.863,0.388,0.676,0.637,�k��,7.0,�L
2020/11/09,15:20,0.673,0.973,0.615,1.202,0.861,0.386,0.676,0.638,�k��,7.4,��
2020/11/09,15:30,0.672,0.972,0.615,1.202,0.862,0.386,0.676,0.641,�k��,6.6,��
2020/11/09,15:40,0.673,0.972,0.617,1.203,0.864,0.388,0.677,0.637,�k��,5.5,��
2020/11/09,15:50,0.671,0.972,0.614,1.205,0.861,0.387,0.676,0.638,�k��,5.9,��
2020/11/09,16:00,0.673,0.972,0.614,1.204,0.862,0.386,0.677,0.638,�k�k��,6.8,��
2020/11/09,16:10,0.672,0.971,0.614,1.202,0.863,0.387,0.677,0.638,�k�k��,7.1,��
2020/11/09,16:20,0.672,0.973,0.614,1.203,0.863,0.387,0.678,0.638,�k�k��,6.9,��
2020/11/09,16:30,0.670,0.971,0.613,1.202,0.861,0.386,0.677,0.637,�k�k��,7.9,��
2020/11/09,16:40,0.671,0.971,0.615,1.202,0.862,0.386,0.677,0.637,�k�k��,7.4,��
2020/11/09,16:50,0.672,0.972,0.613,1.205,0.862,0.387,0.678,0.637,�k�k��,7.5,��
2020/11/09,17:00,0.669,0.970,0.613,1.204,0.863,0.386,0.678,0.637,�k�k��,7.4,��
2020/11/09,17:10,0.670,0.971,0.615,1.203,0.860,0.386,0.679,0.638,�k�k��,6.8,��
2020/11/09,17:20,0.671,0.973,0.615,1.204,0.862,0.386,0.678,0.636,�k�k��,7.2,��
2020/11/09,17:30,0.669,0.971,0.613,1.203,0.862,0.387,0.679,0.638,�k��,5.8,��
2020/11/09,17:40,0.669,0.971,0.614,1.204,0.862,0.385,0.677,0.637,�k��,4.9,��
2020/11/09,17:50,0.669,0.970,0.614,1.202,0.863,0.386,0.677,0.637,�k�k��,3.9,��
2020/11/09,18:00,0.671,0.971,0.613,1.203,0.860,0.384,0.677,0.638,�k�k��,3.7,��
2020/11/09,18:10,0.670,0.969,0.613,1.203,0.861,0.386,0.677,0.637,�k�k��,5.3,��
2020/11/09,18:20,0.670,0.971,0.614,1.205,0.862,0.385,0.677,0.637,�k�k��,6.2,��
2020/11/09,18:30,0.669,0.970,0.612,1.204,0.861,0.387,0.676,0.636,�k�k��,7.8,��
2020/11/09,18:40,0.671,0.972,0.614,1.202,0.859,0.385,0.677,0.635,�k�k��,8.7,��
2020/11/09,18:50,0.671,0.972,0.613,1.203,0.861,0.386,0.679,0.638,�k�k��,8.5,��
2020/11/09,19:00,0.669,0.969,0.613,1.203,0.861,0.385,0.678,0.637,�k�k��,7.4,��
2020/11/09,19:10,0.669,0.971,0.614,1.202,0.860,0.385,0.677,0.636,�k��,7.4,��
2020/11/09,19:20,0.671,0.970,0.615,1.203,0.861,0.387,0.677,0.637,�k��,5.6,��
2020/11/09,19:30,0.670,0.974,0.613,1.202,0.860,0.386,0.677,0.637,�k��,4.7,��
2020/11/09,19:40,0.672,0.970,0.614,1.204,0.861,0.386,0.677,0.638,�k��,4.9,��
2020/11/09,19:50,0.669,0.973,0.614,1.203,0.861,0.384,0.676,0.637,�k��,5.8,��
2020/11/09,20:00,0.670,0.973,0.614,1.205,0.862,0.385,0.678,0.636,�k��,6.7,��
2020/11/09,20:10,0.670,0.971,0.612,1.201,0.862,0.386,0.677,0.635,�k��,8.4,��
2020/11/09,20:20,0.670,0.971,0.612,1.202,0.862,0.386,0.679,0.637,�k�k��,8.5,��
2020/11/09,20:30,0.669,0.970,0.614,1.202,0.862,0.386,0.677,0.638,�k�k��,8.2,��
2020/11/09,20:40,0.670,0.970,0.612,1.202,0.861,0.386,0.677,0.636,�k�k��,9.1,��
2020/11/09,20:50,0.670,0.970,0.614,1.203,0.861,0.385,0.676,0.639,�k��,8.6,��
2020/11/09,21:00,0.670,0.972,0.614,1.202,0.862,0.386,0.678,0.638,�k��,7.0,��
2020/11/09,21:10,0.671,0.971,0.614,1.205,0.863,0.386,0.678,0.636,�k��,6.1,��
2020/11/09,21:20,0.670,0.972,0.616,1.204,0.862,0.386,0.677,0.637,�k��,5.7,��
2020/11/09,21:30,0.669,0.972,0.613,1.203,0.864,0.386,0.676,0.638,�k��,6.2,��
2020/11/09,21:40,0.670,0.971,0.614,1.202,0.862,0.386,0.678,0.636,�k��,6.9,��
2020/11/09,21:50,0.670,0.971,0.614,1.202,0.860,0.386,0.677,0.636,�k��,6.6,��
2020/11/09,22:00,0.669,0.971,0.611,1.204,0.863,0.384,0.679,0.638,�k��,7.2,��
2020/11/09,22:10,0.670,0.971,0.614,1.204,0.862,0.386,0.679,0.637,�k��,6.8,��
2020/11/09,22:20,0.670,0.970,0.615,1.202,0.860,0.385,0.677,0.638,�k��,6.5,��
2020/11/09,22:30,0.671,0.972,0.614,1.199,0.863,0.386,0.678,0.638,�k��,5.7,��
2020/11/09,22:40,0.669,0.972,0.614,1.203,0.863,0.387,0.679,0.638,�k��,5.6,��
2020/11/09,22:50,0.670,0.968,0.614,1.203,0.863,0.386,0.677,0.637,�k��,6.3,��
2020/11/09,23:00,0.672,0.969,0.614,1.203,0.862,0.387,0.678,0.636,�k��,6.1,��
2020/11/09,23:10,0.669,0.971,0.614,1.202,0.862,0.385,0.677,0.636,�k��,5.8,��
2020/11/09,23:20,0.669,0.969,0.615,1.200,0.861,0.386,0.678,0.636,�k��,8.2,��
2020/11/09,23:30,0.669,0.972,0.613,1.202,0.864,0.386,0.678,0.637,�k��,5.2,��
2020/11/09,23:40,0.669,0.969,0.614,1.202,0.860,0.385,0.678,0.636,���k��,6.8,��
2020/11/09,23:50,0.670,0.970,0.613,1.204,0.861,0.387,0.678,0.638,���k��,6.6,��
